GFSMW_925_temp_276.txt.gz
Temp
27 30 29 27 27 28 27 27 27 26 26 25 25 25 25 25 24 25 25 25 25 25 25 25 25 25 24 25 24 24 24 24 25 25 25 24 23 22 22 23 23 23 23
26 27 27 27 28 28 28 28 27 26 26 26 26 26 26 26 25 25 25 25 25 25 25 24 24 24 24 25 24 24 24 24 24 24 22 20 21 23 22 22 21 22 24
25 26 27 27 26 26 28 27 27 27 26 26 26 26 25 25 25 24 25 25 25 24 24 24 24 24 24 24 24 24 24 24 24 24 23 21 20 20 23 22 22 22 23
27 28 26 27 26 27 28 28 27 26 27 27 27 26 26 25 26 25 25 25 24 23 24 24 23 23 23 23 23 23 23 23 23 23 23 23 22 20 20 23 23 23 24
27 26 27 27 27 27 27 27 27 27 27 27 26 26 26 26 26 25 25 25 24 23 23 23 22 22 22 22 22 22 22 23 23 23 23 22 22 22 21 20 21 23 25
28 27 27 28 27 27 26 27 26 26 26 26 26 26 26 25 25 25 25 24 23 23 22 22 22 22 21 21 21 22 22 22 22 22 22 22 21 21 20 20 20 20 25
29 28 27 26 26 26 25 26 26 26 26 26 26 26 26 26 25 24 24 23 23 22 22 22 22 22 21 21 21 22 21 22 22 22 22 21 21 22 22 21 20 20 23
29 29 27 27 27 26 25 26 26 26 26 26 26 26 26 25 25 25 24 24 23 22 22 22 21 21 21 20 20 21 21 21 21 21 21 21 21 21 21 21 20 18 19
30 29 28 27 26 25 26 26 26 26 26 25 25 25 25 25 25 24 23 23 23 22 21 21 21 20 20 20 19 20 20 20 20 20 20 20 20 20 20 21 21 20 18
29 28 27 27 26 26 26 27 26 25 25 25 25 25 25 25 24 24 23 23 22 22 21 21 20 20 19 19 19 19 20 20 19 19 19 20 20 19 20 20 21 21 21
28 27 27 27 26 26 26 26 26 25 25 25 25 25 24 24 24 23 23 22 22 21 21 20 20 20 19 19 19 19 19 19 19 20 19 19 19 19 19 19 19 19 20
28 27 26 27 25 25 25 25 26 25 25 25 25 25 24 23 23 23 22 22 22 21 21 20 20 20 20 19 19 19 19 19 19 19 19 19 19 19 19 19 19 19 19
27 27 26 26 26 24 25 25 25 25 26 25 25 24 23 23 23 23 22 22 21 21 20 20 20 20 20 20 19 19 19 19 19 19 19 18 18 19 18 18 18 18 18
27 27 26 26 26 25 25 25 26 26 26 25 25 24 24 23 23 23 22 21 21 21 21 20 20 20 20 20 19 19 19 19 19 19 19 18 18 18 18 18 17 17 18
27 27 27 26 26 25 25 25 26 26 26 25 24 24 23 23 23 23 22 21 21 21 20 20 20 20 20 20 19 19 19 19 19 19 19 18 18 18 18 17 17 17 17
29 28 28 26 26 26 25 25 26 26 26 25 24 24 23 23 23 22 22 21 21 20 20 20 20 20 20 20 19 19 19 18 18 18 18 19 19 18 17 17 17 17 16
29 29 28 27 27 26 26 25 25 26 24 25 24 24 23 22 22 22 21 21 20 20 20 20 20 20 19 19 19 19 18 18 18 18 18 18 18 17 17 17 17 17 17
29 28 28 28 28 27 26 26 22 22 22 23 23 23 22 22 22 22 21 21 20 20 19 19 19 19 19 19 18 18 18 18 17 17 18 18 18 18 17 17 17 17 17
23 24 29 29 27 26 23 21 20 17 16 16 19 22 22 21 21 21 20 20 20 19 19 19 19 19 19 18 18 18 17 17 17 17 18 18 18 17 17 17 17 17 17
20 21 26 20 19 18 18 19 18 18 18 17 17 17 20 21 21 21 21 20 19 19 19 19 19 19 19 19 18 18 17 17 17 17 18 18 18 17 17 17 16 16 16
19 18 18 17 18 21 22 19 18 20 17 17 17 18 20 20 20 20 20 20 19 19 19 19 19 19 19 19 18 18 17 18 18 18 18 17 17 17 17 16 16 16 15
19 20 19 18 19 21 22 18 18 18 20 17 18 18 19 19 19 20 20 19 19 19 19 19 19 19 19 19 18 18 18 18 18 18 18 17 17 17 17 17 16 16 15
18 18 17 16 18 18 19 16 16 16 20 18 18 19 19 20 20 20 19 19 18 18 19 18 18 19 19 19 19 18 18 18 18 18 17 17 17 17 17 17 17 17 16
17 17 16 16 16 17 17 17 18 18 18 18 19 19 20 20 20 19 19 19 18 19 18 18 18 19 20 20 20 19 18 18 18 18 18 17 17 17 17 18 18 17 17
18 18 18 17 17 19 18 17 18 18 18 19 20 20 20 20 20 19 19 19 20 20 20 20 19 18 19 21 21 20 18 18 18 18 17 17 17 17 17 18 18 18 17
18 18 18 18 17 17 17 17 18 18 18 19 20 20 20 21 20 20 20 20 20 20 20 20 20 20 20 19 19 19 19 18 17 17 17 16 16 16 16 17 17 18 18

GFSMW_925_temp_279.txt.gz
Temp
26 27 27 27 25 25 25 26 25 25 25 24 24 24 24 24 24 24 24 24 24 24 24 24 24 24 25 24 24 24 24 24 24 24 24 23 22 22 23 22 22 22 22
27 26 26 26 25 26 26 26 26 25 25 25 26 25 25 25 25 24 24 24 24 24 24 24 24 24 24 24 24 24 23 23 23 23 21 20 20 22 22 22 21 22 22
24 24 25 25 25 25 26 26 26 26 26 26 25 25 25 25 25 25 24 24 24 24 24 24 24 23 23 23 23 23 23 23 23 23 22 20 20 19 22 23 23 23 23
25 23 23 24 25 26 27 27 26 26 26 26 25 25 25 25 25 25 25 24 24 24 24 24 23 23 23 23 23 23 23 22 23 22 22 22 22 20 20 21 23 23 23
26 24 23 24 25 25 27 26 26 26 26 25 25 26 26 26 25 24 24 24 24 24 23 23 23 22 22 22 22 22 22 22 22 22 22 22 21 21 20 20 21 23 24
27 26 25 25 25 25 24 25 26 25 25 26 25 26 26 26 25 24 24 24 24 23 22 22 22 22 21 21 22 22 22 22 22 22 22 22 21 21 20 19 20 20 24
27 26 25 25 26 25 25 25 24 24 25 25 25 26 26 26 25 25 24 24 23 22 22 22 22 21 21 21 21 21 22 21 21 21 21 21 21 21 21 20 19 18 22
28 27 26 25 25 25 25 26 26 25 25 25 25 25 25 25 25 25 24 24 23 22 21 21 21 21 20 20 20 20 21 21 21 21 21 20 20 20 20 20 19 17 18
28 27 27 26 25 25 25 26 25 25 26 25 25 25 25 25 25 24 24 23 22 22 21 21 21 20 20 20 20 20 20 20 20 20 20 20 19 20 20 20 20 20 18
27 27 26 26 25 25 25 25 26 26 26 25 25 25 25 25 24 24 24 23 22 21 21 21 20 20 19 19 19 19 19 19 19 19 19 19 19 19 19 19 20 20 19
26 26 26 26 25 25 25 26 26 26 25 25 25 25 25 24 24 23 23 23 22 21 21 20 20 19 19 19 19 19 19 19 19 19 19 19 19 18 18 19 19 19 19
26 25 25 25 24 24 24 25 25 25 25 25 25 25 24 24 24 23 23 22 22 21 21 20 20 19 19 19 19 19 19 19 19 19 19 18 18 18 18 18 18 18 19
24 24 23 23 24 24 24 24 25 25 25 25 24 24 24 23 23 23 22 22 21 21 20 20 20 20 19 19 19 19 19 19 19 19 18 18 18 18 18 18 17 18 18
24 24 24 24 24 24 24 24 25 25 25 24 24 24 23 23 23 23 22 22 21 21 20 20 20 20 19 19 19 19 19 19 19 18 18 18 18 18 18 17 17 17 17
24 25 25 25 24 24 24 24 24 24 25 25 24 24 24 23 23 22 22 22 21 21 21 20 20 20 19 19 19 19 19 18 18 18 18 18 18 18 17 17 17 17 16
26 26 26 25 24 24 24 23 23 22 22 23 22 23 23 22 22 22 21 21 21 20 20 20 20 20 19 20 19 19 19 18 18 18 18 18 18 17 17 17 16 16 16
27 26 25 25 25 25 24 24 24 23 22 20 19 19 18 20 21 21 21 21 21 20 20 20 19 19 19 19 19 18 18 18 17 17 17 18 18 17 17 17 17 17 15
25 25 25 26 26 26 23 20 20 20 19 18 18 19 19 17 17 18 20 21 20 20 20 19 19 19 19 19 18 18 18 17 17 17 17 18 18 17 17 17 17 17 16
21 21 22 26 25 23 20 20 20 20 18 17 19 17 19 19 20 18 17 19 19 19 19 19 19 19 19 19 18 18 17 17 17 17 17 18 18 18 17 16 16 17 17
19 19 20 20 19 17 19 20 18 18 21 21 23 19 22 17 17 17 17 19 19 19 19 19 19 19 19 19 18 18 17 17 17 17 17 18 18 18 16 16 16 16 16
18 19 19 17 17 18 19 19 19 19 19 18 18 19 19 19 19 18 17 18 19 19 19 19 19 19 19 19 18 18 17 17 17 17 17 17 17 17 16 16 16 15 15
19 18 18 18 19 19 19 18 17 17 18 18 18 17 17 17 16 16 17 17 19 19 19 18 18 18 18 18 18 18 18 17 18 18 18 17 17 16 16 16 16 16 15
17 17 18 17 17 18 19 17 16 17 18 18 18 17 17 16 16 16 17 18 19 19 18 18 18 19 19 19 19 18 18 18 18 18 18 17 17 17 17 16 17 16 16
17 17 17 16 15 16 17 16 17 17 18 18 18 18 17 17 17 18 18 19 18 18 18 18 18 19 19 19 20 19 19 18 17 18 18 17 17 16 17 17 17 17 17
17 18 17 16 16 17 18 18 18 18 18 18 19 20 20 19 18 18 19 19 20 20 20 20 19 19 19 20 20 20 19 19 18 17 17 17 16 17 17 17 17 16 16
18 18 17 17 17 17 17 17 18 17 18 18 19 20 20 20 18 19 19 19 19 19 19 19 18 19 19 19 20 19 19 18 17 16 16 16 16 16 16 15 15 16 16

GFSMW_925_temp_285.txt.gz
Temp
29 28 27 27 26 25 24 25 24 24 23 22 21 22 22 22 23 23 23 23 23 23 23 23 23 23 24 23 23 23 23 23 23 22 24 24 22 23 22 22 22 22 22
29 28 27 28 26 25 24 25 24 23 24 22 22 22 22 23 23 24 24 23 23 23 23 23 23 23 23 24 24 24 23 23 23 23 24 27 26 23 23 22 22 22 21
30 30 28 28 26 26 24 24 25 27 25 23 22 23 23 23 23 24 24 23 23 23 23 23 23 23 23 23 23 23 23 23 23 22 23 25 26 25 24 23 23 22 22
31 30 29 27 27 26 25 24 26 26 24 23 22 22 24 24 24 23 24 24 23 24 24 23 23 23 23 23 22 22 22 21 23 22 22 22 22 25 27 25 24 23 23
32 31 29 28 27 26 25 25 24 25 24 24 23 23 23 25 24 24 24 24 23 23 23 23 23 23 22 22 21 21 21 21 22 23 22 23 23 22 24 27 26 25 24
32 31 30 28 27 26 25 25 23 26 26 24 25 23 25 23 23 22 22 22 22 21 22 21 22 22 21 21 21 21 21 21 21 22 22 23 24 24 24 25 26 26 25
32 31 29 28 27 26 25 25 23 24 26 25 24 23 23 23 24 23 23 22 22 22 21 21 21 21 21 21 21 21 20 20 21 21 22 21 22 21 22 23 24 24 24
32 31 29 28 27 26 25 25 24 24 25 24 24 24 23 23 24 24 23 23 23 22 21 21 21 21 21 20 20 20 20 19 20 20 20 21 20 20 20 22 22 25 25
32 31 29 28 27 26 25 25 24 25 24 24 24 24 23 23 24 24 24 23 22 22 21 21 21 21 20 20 20 19 19 20 19 19 19 20 19 19 19 19 20 22 24
31 30 30 28 27 27 26 25 25 25 25 25 24 24 23 23 23 23 23 23 22 21 21 21 21 20 19 19 19 19 19 19 19 19 19 19 19 19 19 19 19 20 21
31 30 30 28 27 27 27 25 25 25 25 25 25 24 24 23 23 23 23 22 22 22 21 21 21 20 19 19 19 18 18 18 18 18 18 18 18 19 19 19 19 20 20
31 30 29 28 27 27 27 26 26 25 25 25 24 24 23 23 23 23 23 23 23 22 22 21 20 20 19 19 18 18 19 18 19 19 18 18 18 18 18 19 18 19 18
30 29 29 28 27 27 27 27 26 25 25 24 24 24 23 23 23 23 22 22 22 22 21 21 20 19 18 18 18 18 18 18 18 18 18 18 18 18 18 18 18 18 18
29 29 28 28 26 26 25 25 25 25 24 24 24 24 24 24 23 22 21 21 21 22 21 20 19 19 18 18 18 18 18 18 18 18 18 18 17 17 17 17 17 17 17
29 29 28 27 25 25 24 24 25 24 24 23 24 23 23 22 21 21 22 21 20 20 21 19 19 19 19 19 18 18 18 18 18 18 17 17 17 18 17 17 17 16 17
29 29 28 28 26 26 25 25 24 24 24 23 24 22 21 20 20 20 19 19 20 19 18 19 18 18 19 19 19 18 18 18 18 18 17 17 18 17 17 17 16 16 16
28 28 27 27 27 26 25 25 24 23 22 21 20 19 20 19 19 20 21 19 18 18 18 18 18 18 18 19 19 19 18 18 18 17 17 17 18 17 17 17 16 16 17
25 25 24 23 23 24 24 23 22 21 20 19 18 18 18 19 20 21 22 23 19 18 18 18 18 18 18 19 19 18 17 17 17 17 17 17 17 17 16 17 17 16 16
23 23 22 20 20 20 19 19 19 19 19 18 18 17 17 18 18 19 18 18 17 17 18 18 18 18 18 19 18 18 17 17 16 16 16 16 16 16 17 16 17 16 16
21 20 20 19 18 18 18 18 18 18 17 18 19 19 19 18 18 18 17 18 17 17 18 17 17 19 18 19 18 17 17 17 17 16 16 17 17 17 17 16 16 16 17
20 19 18 18 18 18 18 18 18 18 18 18 17 17 16 16 16 17 17 17 17 16 17 16 17 17 18 18 18 17 17 18 17 18 18 17 17 17 17 16 15 16 15
19 19 18 18 18 19 19 18 17 17 17 17 17 16 16 16 16 16 16 17 16 16 15 15 16 16 16 17 18 18 17 17 17 18 18 18 18 17 17 16 16 16 15
17 18 18 18 17 17 18 18 17 17 18 18 17 17 16 16 16 15 16 16 16 16 15 15 15 15 15 16 17 18 18 17 16 17 17 18 17 17 17 17 16 16 15
19 19 19 18 18 17 17 17 17 17 18 18 18 17 17 16 16 16 15 15 15 15 15 15 14 14 15 16 17 18 17 17 16 16 16 16 17 16 16 16 16 15 15
19 19 19 18 18 17 17 17 17 17 18 19 18 17 16 16 16 16 15 15 15 16 15 15 15 15 16 17 18 18 18 17 16 16 15 14 15 16 16 15 15 15 15
18 17 17 16 16 16 16 17 17 17 18 17 17 17 18 17 16 16 15 16 15 16 16 16 16 16 17 17 18 18 18 18 17 15 15 16 15 15 15 15 15 15 14

GFSMW_925_temp_291.txt.gz
Temp
35 34 33 33 32 31 30 29 28 27 27 27 28 27 27 27 27 27 27 26 25 26 25 26 26 25 26 26 25 26 25 26 24 24 28 29 29 29 29 29 28 28 28
36 35 34 33 33 31 30 29 28 27 26 28 28 29 28 27 28 27 26 25 26 26 25 25 26 26 26 25 25 25 24 25 25 26 28 29 29 29 29 29 28 27 27
36 36 35 34 33 32 31 29 28 27 27 28 27 27 27 27 27 27 27 26 25 26 25 25 24 23 24 26 25 25 25 25 26 27 26 26 25 27 29 28 29 27 28
37 37 36 35 34 33 32 30 28 26 27 27 28 28 28 29 28 28 28 27 26 25 26 25 24 23 24 25 24 24 24 24 26 26 26 26 26 29 26 28 28 28 28
39 38 37 37 35 34 33 31 28 27 27 27 27 27 27 29 29 28 27 25 26 25 26 26 25 24 25 24 23 24 25 25 27 28 25 25 24 27 28 29 27 26 28
40 39 38 37 36 35 33 31 28 27 26 27 26 27 27 27 28 28 27 28 28 27 25 25 24 24 24 25 24 24 24 25 24 25 25 25 25 25 26 25 27 29 30
40 39 39 37 36 34 33 32 29 27 26 27 27 27 27 27 27 26 28 27 29 29 26 25 25 25 24 24 23 24 24 24 24 23 24 26 27 27 27 28 29 30 30
41 40 39 37 35 34 33 32 30 28 27 27 27 27 26 27 27 27 27 27 28 28 28 26 25 25 24 24 23 24 24 25 25 24 24 25 27 26 26 26 27 28 30
40 40 39 37 35 34 33 32 31 29 28 28 27 27 26 26 28 27 27 26 26 27 27 26 24 24 23 23 23 24 24 23 24 25 24 24 26 26 26 26 26 27 28
40 40 39 37 36 34 33 32 31 29 29 29 28 28 27 27 27 28 28 27 27 26 27 25 25 24 23 23 22 24 23 23 24 25 24 23 26 25 25 25 26 26 26
40 39 39 38 36 35 34 32 31 30 30 30 30 29 29 28 27 27 27 27 27 25 25 24 24 23 23 22 22 22 23 22 23 23 23 23 22 24 25 25 25 25 25
40 39 39 38 36 35 35 33 32 32 31 31 30 30 29 29 29 28 28 27 27 25 24 24 23 23 23 22 22 22 24 22 23 23 23 23 23 22 22 24 22 23 22
39 39 38 37 37 36 35 35 33 33 33 31 31 30 30 29 29 29 28 28 27 25 25 24 23 23 23 22 22 22 23 22 23 23 22 23 22 22 22 21 22 24 23
38 39 38 37 35 34 33 33 34 33 32 33 31 30 29 30 29 29 28 28 26 25 24 24 23 23 23 23 22 22 22 22 23 23 22 22 22 22 21 21 21 21 21
38 37 37 35 34 32 31 31 30 31 31 31 31 30 29 29 29 29 28 27 25 24 23 23 23 23 23 23 23 22 22 22 23 22 22 21 21 20 20 20 21 20 21
34 33 33 32 31 31 31 30 30 29 29 29 29 29 28 27 27 26 26 24 24 24 23 23 23 22 23 24 24 23 23 22 22 22 22 21 20 19 19 19 19 18 19
32 32 31 30 29 30 29 30 28 27 27 24 23 23 23 21 22 22 22 22 23 21 21 22 22 22 22 22 23 22 23 23 22 22 22 22 23 20 20 19 19 18 18
31 30 30 28 27 26 25 25 23 23 22 21 20 20 20 19 19 20 20 20 19 19 19 21 21 21 21 22 21 21 21 21 22 22 21 21 21 21 20 21 20 20 18
30 30 29 27 25 24 23 23 22 21 21 20 19 19 19 19 19 19 20 21 21 21 21 22 21 20 20 21 20 20 20 21 21 21 21 21 20 20 19 19 19 20 21
28 28 27 26 24 23 23 22 22 22 21 20 20 20 20 21 21 20 19 19 20 20 20 21 21 20 20 20 19 19 21 20 20 21 20 20 19 19 18 18 19 20 20
28 26 25 24 22 23 23 23 23 22 21 20 21 21 20 21 20 19 19 18 19 19 20 20 20 19 19 17 18 18 17 17 17 18 20 20 19 19 18 17 17 19 19
28 26 24 22 23 23 23 23 21 21 21 21 21 20 20 20 19 19 17 16 18 18 18 17 17 16 16 15 15 16 16 16 16 16 16 16 16 17 18 17 17 17 18
27 26 25 24 23 23 23 22 21 21 21 21 20 20 19 19 20 19 18 16 15 15 15 15 15 15 15 15 15 14 15 15 15 15 16 16 16 16 16 17 17 17 17
27 26 25 24 22 23 23 22 21 21 22 21 21 21 20 18 17 18 20 19 18 17 16 14 14 14 14 14 14 14 14 15 15 15 15 15 15 14 14 16 17 17 17
26 25 23 21 20 21 21 22 22 22 21 22 21 22 20 18 17 15 16 18 16 17 18 17 16 15 14 14 14 14 14 14 14 14 15 15 14 14 14 15 16 17 17
23 23 22 21 21 22 22 21 22 22 22 23 22 21 21 20 21 20 16 15 15 16 16 15 15 15 15 15 15 15 15 15 15 15 15 15 14 15 15 14 14 15 15